SCP
0 0 1 3 5 5 4 2 1 0 0 0 0 0 0 1 1 2 2 2 1 1 0 0 0 0 0 0 0 0 0 0 0 1 1 0 0 0 0 0 0 0 0
0 0 1 2 4 5 4 2 1 0 0 0 0 0 0 0 1 1 2 2 1 1 0 0 0 0 0 0 0 0 0 0 0 0 0 0 0 0 0 0 0 0 0
0 0 0 1 3 4 4 2 1 0 0 0 0 0 0 0 0 0 1 1 1 1 0 0 0 0 0 0 0 0 0 0 0 0 0 0 0 0 0 0 0 0 0
0 0 0 1 2 3 3 1 0 0 0 0 0 0 0 0 0 0 0 1 1 1 0 0 0 0 0 0 0 0 0 0 0 0 0 0 0 0 0 0 0 0 0
0 0 0 1 2 2 2 1 0 0 0 0 0 0 0 0 0 0 0 0 1 1 0 0 0 0 0 0 0 0 0 0 0 0 0 0 0 0 0 0 0 0 0
0 0 0 0 1 1 1 0 0 0 0 0 0 0 0 0 0 0 0 0 0 0 0 0 0 0 0 0 0 0 0 0 0 0 0 0 0 0 0 0 0 0 0
0 0 0 0 0 0 0 0 0 0 0 0 0 0 0 0 0 0 0 0 0 0 0 0 0 0 0 0 0 0 0 0 0 0 0 0 0 0 0 0 0 0 0
0 0 0 0 0 0 0 0 0 0 0 0 0 0 0 0 0 0 0 0 0 0 0 0 0 0 0 0 0 0 0 0 0 0 0 0 0 0 0 0 0 0 0
0 0 0 0 0 0 0 0 0 0 0 0 0 0 0 0 0 0 0 0 0 0 0 0 0 0 0 0 0 0 0 0 0 0 0 0 0 0 0 0 0 0 0
0 0 0 0 0 0 0 0 0 0 0 0 0 0 0 0 0 0 0 0 0 0 0 0 0 0 0 0 0 0 0 0 0 0 0 0 0 0 0 0 0 0 0
0 0 0 0 0 0 0 0 0 0 0 0 0 0 0 0 0 0 0 0 0 0 0 0 0 0 0 0 0 0 0 0 0 0 0 0 0 0 0 0 0 0 0
0 0 0 0 0 0 0 0 0 0 0 0 0 0 0 0 0 0 0 0 0 0 1 1 0 0 0 0 0 0 0 0 0 0 0 0 0 0 0 0 0 0 0
0 0 0 0 0 0 0 0 0 0 0 0 0 0 0 0 0 0 0 0 0 0 0 1 0 0 0 0 0 0 0 0 0 0 0 0 0 0 0 0 0 0 0
0 0 0 0 0 0 0 0 0 0 0 0 0 0 0 0 0 0 0 0 0 0 0 1 0 0 0 0 0 0 0 0 0 0 0 0 0 0 0 0 0 0 0
0 0 0 0 0 0 0 0 0 0 0 0 0 0 0 0 0 0 0 0 0 0 0 0 0 0 0 0 0 0 0 0 0 0 0 0 0 0 0 0 0 0 0
0 0 0 0 0 0 0 0 0 0 0 0 0 0 0 0 0 0 0 0 0 0 0 0 0 0 0 0 0 0 0 0 0 0 0 0 0 0 0 0 0 0 0
0 0 0 0 0 0 0 0 0 0 0 0 0 0 0 0 0 0 0 0 0 0 0 0 0 0 0 0 0 0 0 0 0 0 0 0 0 0 0 0 0 0 0
0 0 0 0 0 0 0 0 0 0 0 0 0 0 0 0 0 0 0 0 0 0 0 0 0 0 0 0 0 0 0 0 0 0 0 0 0 0 0 0 0 0 0
0 0 0 0 0 0 0 0 0 0 0 0 0 0 0 0 0 0 0 0 0 0 0 0 0 0 0 0 0 0 0 0 0 0 0 0 0 0 0 0 0 0 0
0 0 0 0 0 0 0 0 0 0 0 0 0 0 0 0 0 0 0 0 0 0 0 0 0 0 0 0 0 0 0 0 0 0 0 0 0 0 0 0 0 0 0
0 0 0 0 0 0 0 0 0 0 0 0 0 0 0 0 0 0 0 0 0 0 0 0 0 0 0 0 0 0 0 0 0 0 0 0 0 0 0 0 0 0 0
0 0 0 0 0 0 0 0 0 0 0 0 0 0 0 0 0 0 0 0 0 0 0 0 0 0 0 0 0 0 0 0 0 0 0 0 0 0 0 0 0 0 0
0 0 0 0 0 0 0 0 0 0 0 0 0 0 0 0 0 0 0 0 0 0 0 0 0 0 0 0 0 0 0 0 0 0 0 0 0 0 0 0 0 0 0
0 0 0 0 0 0 0 0 0 0 0 0 0 0 0 0 0 0 0 0 0 0 0 0 0 0 0 0 0 0 0 0 0 0 0 0 0 0 0 0 0 0 0
0 0 0 0 0 0 0 0 0 0 0 0 0 0 0 0 0 0 0 0 0 0 0 0 0 0 0 0 0 0 0 0 0 0 0 0 0 0 0 0 0 0 0
0 0 0 0 0 0 0 0 0 0 0 0 0 0 0 0 0 0 0 0 0 0 0 0 0 0 0 0 0 0 0 0 0 0 0 0 0 0 0 0 0 0 0
Wind_Speed
3 1 1 2 2 2 3 3 3 3 3 2 2 2 2 1 1 1 1 2 2 2 2 1 1 1 1 1 1 1 1 1 1 1 1 2 1 1 1 1 1 1 1
2 1 0 1 2 2 3 3 3 4 3 3 2 2 1 1 1 1 1 1 2 2 2 2 2 1 1 1 1 1 1 1 1 1 0 2 2 2 1 1 1 1 1
3 2 1 1 1 1 2 3 4 4 3 3 2 2 2 1 1 1 0 0 1 1 2 2 2 2 1 1 1 2 2 1 0 0 1 1 2 2 2 1 1 1 1
3 2 2 2 2 2 1 1 2 3 3 3 4 4 3 2 2 1 1 1 1 1 1 2 2 2 1 1 1 1 1 2 1 0 0 1 1 1 2 2 1 2 2
3 3 2 2 1 1 1 1 2 2 3 3 3 3 2 2 1 1 1 1 0 1 1 1 1 1 1 2 1 1 1 2 2 2 1 1 1 1 2 3 3 2 2
2 2 1 0 1 1 1 1 2 2 2 3 3 3 3 2 2 1 1 0 0 0 0 1 1 1 1 2 2 2 2 2 2 2 2 2 2 2 2 3 3 3 3
1 1 0 0 1 1 0 1 2 1 2 2 2 3 3 3 3 3 2 1 0 1 1 1 1 2 2 2 2 2 2 2 2 3 2 2 3 2 2 2 2 3 3
1 1 2 1 1 0 0 1 2 1 1 2 2 2 2 2 2 2 2 2 2 2 2 2 2 2 2 2 2 2 2 2 3 3 3 2 3 2 2 2 2 3 3
2 2 2 1 1 1 1 1 2 2 2 2 1 1 1 2 2 2 2 2 1 1 1 2 2 2 2 2 2 2 2 2 3 3 3 3 3 3 3 3 3 3 3
2 2 2 1 1 1 0 0 1 2 1 1 1 1 1 1 1 1 2 2 1 1 1 2 2 2 2 2 2 2 2 2 3 2 3 3 2 2 3 3 3 3 3
2 2 2 2 1 1 0 0 0 1 1 1 1 1 1 1 1 1 2 2 1 1 2 2 2 2 2 2 3 3 3 3 3 3 3 4 3 3 2 2 2 3 3
2 1 1 1 1 1 1 0 0 1 1 1 1 1 1 1 1 1 2 1 1 2 2 2 2 3 3 3 3 3 3 4 4 4 3 4 3 3 3 2 3 3 3
2 1 1 1 1 1 1 1 1 1 1 1 1 1 1 1 1 2 2 2 2 2 2 2 3 3 3 3 3 4 4 4 4 4 4 4 4 4 3 3 3 3 3
2 1 2 2 2 2 2 1 1 1 1 1 1 1 1 2 2 2 2 2 2 2 3 3 3 3 3 4 4 4 4 4 4 4 4 5 5 5 4 4 4 3 3
2 2 2 2 2 2 2 1 1 1 0 1 1 2 2 1 2 2 2 2 2 3 3 3 3 3 3 3 4 4 4 4 4 4 4 5 6 7 5 4 3 3 3
3 3 3 3 3 3 2 1 1 1 0 1 1 1 1 1 2 2 2 2 2 2 2 3 3 3 3 5 6 5 4 4 4 4 4 5 6 7 8 9 7 5 4
4 4 3 4 3 3 2 2 1 1 0 1 1 1 1 2 2 2 2 2 3 2 2 3 3 3 4 6 7 7 4 4 4 5 4 4 4 5 4 7 7 6 7
4 4 3 3 3 2 2 1 1 1 1 1 2 2 1 2 2 2 2 2 2 2 2 3 3 3 4 7 7 6 4 3 4 5 5 5 5 5 5 4 4 4 4
4 4 3 3 3 2 1 0 1 1 1 2 2 2 2 2 2 2 3 3 2 2 3 3 3 3 4 7 7 6 3 3 4 4 4 4 5 7 7 4 4 3 3
2 2 2 2 2 2 1 1 1 1 2 2 3 2 2 2 3 3 3 2 2 3 3 3 3 4 4 7 7 6 3 3 3 3 4 6 6 7 7 4 3 3 3
3 2 2 2 2 1 1 1 1 2 3 2 2 2 2 2 2 2 2 2 2 2 3 3 3 4 5 6 7 6 3 3 3 3 3 3 6 7 6 4 3 4 3
2 1 1 2 2 1 1 1 2 3 2 2 2 2 2 2 2 2 2 2 2 2 3 3 4 3 4 5 5 6 5 4 3 3 3 3 5 5 5 3 3 3 1
2 1 1 1 2 1 1 2 3 2 2 2 2 2 2 2 2 2 2 2 2 2 2 3 3 3 2 3 5 5 5 5 3 2 4 4 4 3 2 2 2 1 1
2 1 1 1 2 2 2 2 2 1 1 2 2 2 2 2 2 2 2 2 2 2 2 3 3 3 3 2 2 3 3 4 3 2 2 2 1 1 1 1 1 1 1
2 1 1 2 3 2 2 2 2 1 1 2 2 2 2 2 2 2 2 3 3 4 3 3 3 3 3 4 4 3 2 2 2 1 0 0 0 0 0 0 0 0 1
2 1 2 2 3 2 3 2 2 1 1 2 2 2 1 1 2 2 3 3 4 5 6 6 5 4 5 6 5 4 3 3 2 1 1 1 1 1 1 1 1 1 1
Wind_Direction
259 252 181 151 153 165 165 172 166 167 151 146 154 158 176 186 184 193 174 165 163 154 146 139 141 145 146 167 152 124 60 10 354 29 332 317 291 252 263 248 241 290 312
274 271 182 137 172 180 179 174 177 176 178 176 174 167 153 154 148 110 88 166 166 163 156 150 155 156 147 142 140 124 111 31 40 107 34 329 328 318 287 268 230 277 310
233 240 216 218 214 206 187 185 188 186 187 165 134 113 95 76 76 81 128 90 140 153 156 156 151 154 158 180 189 155 144 175 284 120 150 176 258 300 305 291 295 315 313
238 238 229 227 222 227 205 176 170 160 154 148 152 152 158 173 190 177 160 98 114 130 146 149 148 160 170 177 205 170 166 172 199 225 210 197 180 228 306 310 306 305 292
231 233 231 229 238 215 166 158 143 137 133 140 150 152 160 158 131 127 134 134 117 128 141 156 157 176 179 179 183 177 182 188 192 194 195 211 217 207 225 280 303 311 288
250 245 253 56 16 49 75 117 136 133 137 144 151 161 168 157 146 167 174 178 66 176 161 175 176 194 188 190 197 197 193 198 200 204 203 200 194 205 216 249 279 289 291
259 244 270 13 7 22 71 120 131 141 150 152 165 177 180 174 182 191 194 192 205 247 243 216 202 212 208 205 195 188 205 204 205 214 220 222 224 213 216 239 266 280 288
311 268 237 221 221 225 158 157 161 166 157 162 185 185 180 177 186 193 195 197 209 222 226 224 214 220 217 211 195 200 216 213 217 227 226 231 236 222 217 219 236 281 287
301 290 276 248 222 214 228 206 190 189 176 177 177 181 187 180 187 196 193 204 211 218 215 224 229 231 225 219 206 211 222 220 226 233 232 234 239 224 223 224 218 226 267
321 311 298 284 263 236 256 204 187 203 198 175 179 197 195 190 187 184 200 211 221 226 212 227 235 236 231 222 213 219 221 223 238 236 236 239 242 232 224 221 224 221 230
297 304 309 315 321 342 21 42 184 182 204 187 175 168 187 179 176 196 221 221 223 229 226 232 238 236 236 231 220 224 223 229 243 244 237 242 242 238 230 224 225 226 223
283 291 305 335 343 337 330 297 258 219 227 197 167 177 186 183 202 233 245 228 226 238 238 234 236 239 242 240 232 235 234 227 236 243 242 245 244 244 233 226 232 234 230
301 317 336 324 307 305 304 290 271 251 226 174 160 170 205 212 234 247 253 245 237 246 244 231 232 238 240 242 240 235 235 234 235 237 241 245 238 248 244 234 235 236 242
273 291 308 299 291 289 286 282 282 260 222 170 171 210 236 235 244 251 251 249 240 245 243 239 238 238 240 239 242 236 236 239 239 238 238 237 233 237 238 237 232 227 231
261 268 278 286 291 292 296 299 290 277 242 185 215 246 254 256 258 264 261 257 247 249 247 246 246 248 244 241 239 231 233 233 238 240 239 238 241 245 246 243 231 219 223
259 265 271 277 279 274 275 283 285 280 235 238 260 270 267 265 262 267 268 268 261 261 255 252 248 251 255 265 264 253 233 232 232 239 242 242 245 248 259 260 253 237 227
261 264 263 263 267 269 263 261 271 274 244 261 278 271 260 266 272 275 274 269 264 259 256 259 254 252 260 272 272 265 253 234 231 230 235 249 251 253 244 254 261 259 252
251 257 262 268 271 266 270 279 294 294 276 274 278 277 271 270 273 271 273 271 258 255 255 260 258 260 269 278 278 276 260 241 235 232 231 238 248 245 242 235 240 242 245
250 249 249 258 263 258 249 241 291 285 280 278 276 273 273 269 264 267 269 265 254 256 257 259 254 256 271 280 279 273 246 242 247 243 237 238 243 253 253 236 239 253 259
270 255 259 262 258 259 200 169 251 270 274 276 279 281 273 265 263 264 264 262 249 253 256 260 253 251 261 275 276 270 239 238 246 248 246 250 251 254 253 227 221 243 257
288 270 258 262 258 243 175 205 252 267 275 283 286 289 283 271 267 273 267 261 257 257 255 260 261 255 260 272 273 270 244 228 237 248 247 248 259 265 264 254 231 242 258
308 293 283 292 288 240 181 230 263 276 292 292 293 292 287 280 280 269 274 263 250 253 259 264 271 261 262 270 272 274 268 262 238 244 245 246 260 267 268 264 255 259 270
285 290 259 297 309 292 220 236 269 284 293 298 295 297 295 287 281 263 265 261 243 246 260 258 266 273 265 261 272 275 278 276 259 247 260 270 273 270 261 260 255 240 183
274 281 266 278 295 301 283 254 273 279 274 287 296 296 294 292 287 271 258 249 244 243 250 257 261 268 271 257 247 244 253 264 263 255 265 289 295 302 294 269 251 222 203
284 270 247 259 277 290 289 283 279 265 273 283 290 294 289 286 286 277 265 257 247 247 246 247 249 254 260 265 266 259 239 230 230 229 193 116 64 241 260 265 259 215 195
273 272 266 263 276 284 288 290 287 250 252 276 286 286 288 288 289 294 307 298 281 284 270 265 264 266 270 279 274 273 273 275 269 211 186 208 231 239 241 251 277 256 232